Location: Auckland
(36.8670°S, 174.7670°E)
Time: 15:19:55
(UTC+12:00)

Courier 1B Rocket - Pass Details

Date: 26 July 2019
Orbit: 920 x 1202 km, 28.3° (Epoch: 24 August)

Event Time Altitude Azimuth Distance (km) Brightness Sun altitude
Rises 02:47:57 0° 304° (NW) 4,079 - -54.9°
Reaches altitude 10° 02:51:03 10° 312° (NW) 3,130 - -54.3°
Maximum altitude 02:57:59 35° 15° (NNE) 1,832 - -53.0°
Exits shadow 03:04:04 13° 74° (ENE) 2,871 7.8 -51.8°
Drops below altitude 10° 03:04:52 10° 77° (ENE) 3,099 8.0 -51.7°
Sets 03:07:54 0° 85° (E) 4,033 8.8 -51.1°
